ARE4006 SKBO-SKRG

Flight info

Callsign ARE4006
Flight time 0h 27m
Altitude 24000
Route TOBKI4R VASIL DCT NIRSO NIRSO3C
Aircraft A320/M-SDE3FGHIRWY/LB1

Departure

Time 2026-04-23 13:54
Airport El Dorado International Airport (SKBO)

Arrival

Time 2026-04-23 14:21
Airport Jose Maria Córdova International Airport (SKRG)
Time Latitude Longitude Altitude Speed Heading
2026-04-23 13:33 4.69946 -74.14274 8370 ft 0 kts 37°
2026-04-23 13:41 4.69945 -74.14274 8370 ft 1 kts 37°
2026-04-23 13:41 4.69925 -74.14289 8370 ft 4 kts 37°
2026-04-23 13:41 4.69904 -74.14305 8370 ft 4 kts 37°
2026-04-23 13:42 4.69882 -74.14322 8370 ft 4 kts 37°
2026-04-23 13:42 4.69869 -74.14332 8370 ft 4 kts 37°
2026-04-23 13:42 4.69892 -74.14322 8370 ft 4 kts
2026-04-23 13:42 4.69911 -74.14334 8370 ft 4 kts 311°
2026-04-23 13:43 4.69926 -74.14355 8370 ft 4 kts 307°
2026-04-23 13:43 4.69934 -74.14366 8370 ft 0 kts 307°
2026-04-23 13:45 4.69941 -74.14376 8370 ft 5 kts 306°
2026-04-23 13:45 4.69970 -74.14414 8370 ft 8 kts 308°
2026-04-23 13:45 4.70001 -74.14455 8370 ft 7 kts 307°
2026-04-23 13:45 4.70032 -74.14496 8370 ft 7 kts 307°
2026-04-23 13:46 4.70063 -74.14537 8370 ft 8 kts 308°
2026-04-23 13:46 4.70087 -74.14591 8370 ft 9 kts 285°
2026-04-23 13:46 4.70126 -74.14640 8370 ft 9 kts 321°
2026-04-23 13:46 4.70161 -74.14688 8370 ft 8 kts 279°
2026-04-23 13:47 4.70133 -74.14735 8370 ft 8 kts 221°
2026-04-23 13:47 4.70082 -74.14773 8370 ft 11 kts 217°
2026-04-23 13:47 4.70014 -74.14824 8370 ft 14 kts 217°
2026-04-23 13:47 4.69935 -74.14884 8370 ft 14 kts 217°
2026-04-23 13:48 4.69866 -74.14947 8370 ft 13 kts 243°
2026-04-23 13:48 4.69894 -74.15026 8371 ft 13 kts 305°
2026-04-23 13:48 4.69955 -74.15106 8371 ft 16 kts 307°
2026-04-23 13:48 4.70021 -74.15193 8371 ft 16 kts 307°
2026-04-23 13:49 4.70086 -74.15280 8370 ft 16 kts 307°
2026-04-23 13:49 4.70153 -74.15366 8371 ft 16 kts 307°
2026-04-23 13:49 4.70219 -74.15455 8370 ft 16 kts 306°
2026-04-23 13:49 4.70287 -74.15546 8370 ft 17 kts 307°
2026-04-23 13:50 4.70360 -74.15642 8370 ft 18 kts 307°
2026-04-23 13:50 4.70437 -74.15745 8370 ft 19 kts 307°
2026-04-23 13:50 4.70520 -74.15855 8370 ft 20 kts 307°
2026-04-23 13:50 4.70608 -74.15971 8370 ft 21 kts 307°
2026-04-23 13:51 4.70699 -74.16091 8371 ft 21 kts 307°
2026-04-23 13:51 4.70791 -74.16211 8371 ft 22 kts 307°
2026-04-23 13:51 4.70888 -74.16337 8371 ft 23 kts 308°
2026-04-23 13:51 4.70989 -74.16468 8371 ft 24 kts 306°
2026-04-23 13:52 4.71079 -74.16591 8370 ft 20 kts 306°
2026-04-23 13:52 4.71150 -74.16686 8371 ft 14 kts 307°
2026-04-23 13:52 4.71203 -74.16770 8371 ft 10 kts 281°
2026-04-23 13:52 4.71166 -74.16821 8371 ft 10 kts 219°
2026-04-23 13:53 4.71105 -74.16867 8371 ft 12 kts 217°
2026-04-23 13:53 4.71024 -74.16871 8372 ft 14 kts 143°
2026-04-23 13:53 4.70943 -74.16768 8372 ft 33 kts 127°
2026-04-23 13:53 4.70656 -74.16387 8373 ft 100 kts 127°
2026-04-23 13:54 4.70127 -74.15688 8371 ft 149 kts 127°
2026-04-23 13:54 4.69421 -74.14753 8439 ft 182 kts 127°
2026-04-23 13:54 4.68667 -74.13758 9094 ft 181 kts 131°
2026-04-23 13:54 4.67565 -74.13157 9641 ft 188 kts 176°
2026-04-23 13:55 4.66257 -74.13521 9831 ft 212 kts 218°
2026-04-23 13:55 4.65308 -74.14746 10008 ft 238 kts 238°
2026-04-23 13:55 4.64424 -74.16207 10536 ft 249 kts 238°
2026-04-23 13:55 4.63524 -74.17683 11318 ft 247 kts 238°
2026-04-23 13:56 4.62604 -74.19148 12086 ft 249 kts 237°
2026-04-23 13:56 4.61712 -74.20635 12832 ft 250 kts 246°
2026-04-23 13:56 4.61221 -74.22352 13274 ft 268 kts 257°
2026-04-23 13:56 4.60831 -74.24266 13528 ft 291 kts 259°
2026-04-23 13:57 4.60443 -74.26321 13956 ft 306 kts 259°
2026-04-23 13:57 4.60153 -74.28444 14580 ft 311 kts 264°
2026-04-23 13:57 4.59993 -74.30624 15208 ft 315 kts 266°
2026-04-23 13:57 4.59892 -74.32828 15849 ft 318 kts 267°
2026-04-23 13:58 4.59813 -74.35053 16506 ft 321 kts 267°
2026-04-23 13:58 4.59734 -74.37301 17114 ft 324 kts 268°
2026-04-23 13:58 4.59949 -74.39563 17718 ft 329 kts 282°
2026-04-23 13:58 4.60699 -74.41752 18202 ft 340 kts 295°
2026-04-23 13:59 4.62018 -74.43796 18326 ft 360 kts 307°
2026-04-23 13:59 4.63590 -74.45773 18608 ft 372 kts 307°
2026-04-23 13:59 4.65211 -74.47814 19053 ft 377 kts 307°
2026-04-23 13:59 4.66847 -74.49884 19568 ft 380 kts 307°
2026-04-23 14:00 4.67959 -74.51292 19865 ft 382 kts 307°
2026-04-23 14:00 4.70144 -74.54072 20589 ft 385 kts 307°
2026-04-23 14:00 4.71805 -74.56190 21141 ft 388 kts 307°
2026-04-23 14:00 4.73474 -74.58321 21693 ft 390 kts 307°
2026-04-23 14:01 4.75307 -74.60344 22246 ft 393 kts 317°
2026-04-23 14:01 4.77463 -74.62046 22786 ft 397 kts 323°
2026-04-23 14:01 4.79700 -74.63699 23310 ft 401 kts 322°
2026-04-23 14:01 4.81951 -74.65360 23801 ft 404 kts 322°
2026-04-23 14:02 4.84224 -74.67039 24109 ft 406 kts 322°
2026-04-23 14:02 4.86481 -74.68733 24204 ft 403 kts 321°
2026-04-23 14:02 4.88663 -74.70422 24228 ft 388 kts 321°
2026-04-23 14:02 4.90764 -74.72082 24230 ft 383 kts 320°
2026-04-23 14:03 4.92802 -74.73786 24232 ft 381 kts 314°
2026-04-23 14:03 4.94500 -74.75808 24232 ft 378 kts 303°
2026-04-23 14:03 4.95782 -74.78106 24232 ft 377 kts 295°
2026-04-23 14:03 4.96923 -74.80472 24242 ft 377 kts 295°
2026-04-23 14:04 4.98076 -74.82837 24239 ft 378 kts 295°
2026-04-23 14:04 4.99230 -74.85201 24240 ft 377 kts 295°
2026-04-23 14:04 5.00368 -74.87536 24239 ft 378 kts 295°
2026-04-23 14:04 5.01537 -74.89936 24240 ft 378 kts 295°
2026-04-23 14:05 5.02676 -74.92273 24243 ft 379 kts 295°
2026-04-23 14:05 5.03832 -74.94645 24244 ft 379 kts 295°
2026-04-23 14:05 5.05002 -74.97053 24245 ft 379 kts 295°
2026-04-23 14:05 5.06142 -74.99396 24245 ft 379 kts 295°
2026-04-23 14:06 5.07300 -75.01771 24248 ft 379 kts 295°
2026-04-23 14:06 5.08460 -75.04147 24249 ft 379 kts 295°
2026-04-23 14:06 5.09618 -75.06524 24259 ft 379 kts 295°
2026-04-23 14:06 5.10775 -75.08899 24281 ft 379 kts 295°
2026-04-23 14:07 5.11929 -75.11279 24276 ft 379 kts 295°
2026-04-23 14:07 5.14235 -75.16039 24305 ft 380 kts 295°
2026-04-23 14:07 5.15464 -75.18386 24316 ft 380 kts 302°
2026-04-23 14:08 5.17077 -75.20488 24320 ft 381 kts 311°
2026-04-23 14:08 5.18845 -75.22471 24341 ft 381 kts 310°
2026-04-23 14:08 5.20608 -75.24454 24345 ft 381 kts 310°
2026-04-23 14:08 5.22373 -75.26446 24345 ft 381 kts 310°
2026-04-23 14:09 5.24158 -75.28467 24299 ft 389 kts 310°
2026-04-23 14:09 5.25953 -75.30499 23876 ft 388 kts 310°
2026-04-23 14:09 5.27738 -75.32521 23392 ft 386 kts 310°
2026-04-23 14:09 5.29515 -75.34531 22919 ft 383 kts 310°
2026-04-23 14:10 5.31275 -75.36522 22432 ft 381 kts 311°
2026-04-23 14:10 5.33239 -75.38293 21968 ft 380 kts 325°
2026-04-23 14:10 5.35580 -75.39496 21497 ft 379 kts 340°
2026-04-23 14:10 5.38155 -75.40046 21016 ft 379 kts 354°
2026-04-23 14:11 5.40782 -75.40190 20535 ft 378 kts 356°
2026-04-23 14:11 5.43397 -75.40325 20071 ft 376 kts 356°
2026-04-23 14:11 5.46005 -75.40462 19612 ft 374 kts 356°
2026-04-23 14:11 5.48591 -75.40601 19180 ft 372 kts 356°
2026-04-23 14:12 5.51170 -75.40741 18764 ft 370 kts 356°
2026-04-23 14:12 5.53734 -75.40885 18291 ft 368 kts 356°
2026-04-23 14:12 5.56280 -75.41030 17805 ft 365 kts 356°
2026-04-23 14:12 5.58810 -75.41172 17354 ft 363 kts 356°
2026-04-23 14:13 5.61312 -75.41313 17047 ft 356 kts 356°
2026-04-23 14:13 5.63727 -75.41448 16699 ft 346 kts 356°
2026-04-23 14:13 5.66095 -75.41578 16140 ft 337 kts 356°
2026-04-23 14:13 5.68420 -75.41704 15484 ft 333 kts 356°
2026-04-23 14:14 5.70716 -75.41829 14850 ft 328 kts 356°
2026-04-23 14:14 5.72956 -75.41951 14557 ft 313 kts 356°
2026-04-23 14:14 5.75059 -75.42066 14431 ft 294 kts 356°
2026-04-23 14:14 5.77068 -75.42177 14180 ft 285 kts 356°
2026-04-23 14:15 5.79028 -75.42254 13766 ft 279 kts 358°
2026-04-23 14:15 5.80968 -75.42270 13324 ft 279 kts 359°
2026-04-23 14:15 5.82253 -75.42265 13058 ft 278 kts 359°
2026-04-23 14:15 5.84182 -75.42172 12694 ft 277 kts
2026-04-23 14:16 5.86089 -75.42108 12344 ft 270 kts 359°
2026-04-23 14:16 5.87937 -75.42118 12014 ft 262 kts 358°
2026-04-23 14:16 5.89740 -75.42137 11702 ft 255 kts 359°
2026-04-23 14:16 5.91493 -75.42150 11396 ft 248 kts 359°
2026-04-23 14:17 5.93198 -75.42161 11104 ft 242 kts 359°
2026-04-23 14:17 5.94848 -75.42171 10850 ft 232 kts 358°
2026-04-23 14:17 5.96433 -75.42181 10555 ft 224 kts 358°
2026-04-23 14:17 5.97962 -75.42191 10295 ft 216 kts 359°
2026-04-23 14:18 5.99453 -75.42201 10025 ft 213 kts 358°
2026-04-23 14:18 6.00928 -75.42211 9750 ft 211 kts 358°
2026-04-23 14:18 6.02381 -75.42220 9479 ft 205 kts 358°
2026-04-23 14:18 6.03759 -75.42229 9223 ft 190 kts 358°
2026-04-23 14:19 6.05037 -75.42237 8994 ft 178 kts 359°
2026-04-23 14:19 6.06238 -75.42245 8776 ft 168 kts 358°
2026-04-23 14:19 6.07391 -75.42253 8572 ft 163 kts 358°
2026-04-23 14:19 6.08523 -75.42260 8369 ft 161 kts 359°
2026-04-23 14:20 6.09641 -75.42268 8164 ft 161 kts 359°
2026-04-23 14:20 6.10757 -75.42275 7933 ft 160 kts 359°
2026-04-23 14:20 6.11868 -75.42283 7679 ft 159 kts 359°
2026-04-23 14:20 6.12968 -75.42290 7409 ft 158 kts
2026-04-23 14:21 6.14066 -75.42293 7149 ft 157 kts 359°
2026-04-23 14:21 6.15157 -75.42300 6989 ft 156 kts
2026-04-23 14:21 6.16160 -75.42306 6979 ft 127 kts 360°
2026-04-23 14:21 6.16833 -75.42315 7001 ft 45 kts 358°
2026-04-23 14:22 6.17037 -75.42376 7013 ft 27 kts 333°
2026-04-23 14:22 6.17148 -75.42437 7014 ft 12 kts 327°
2026-04-23 14:22 6.17186 -75.42510 7016 ft 13 kts 271°
2026-04-23 14:22 6.17175 -75.42601 7019 ft 11 kts 232°
2026-04-23 14:23 6.17080 -75.42624 7019 ft 18 kts 203°
2026-04-23 14:23 6.16967 -75.42704 7022 ft 17 kts 220°
2026-04-23 14:23 6.16947 -75.42739 7020 ft 1 kts 300°
2026-04-23 14:23 6.16951 -75.42746 7018 ft 3 kts 294°
2026-04-23 14:24 6.16977 -75.42766 7018 ft 2 kts 328°
2026-04-23 14:24 6.16979 -75.42767 7018 ft 0 kts 328°